EUTELSAT 36 WEST A      
1 27508U 02040A   19258.82144358 -.00000163  00000-0  00000-0 0  9999
2 27508   1.0740  90.9912 0003675 295.3212 221.8871  0.98294141 62400
METEOSAT-8 (MSG-1)      
1 27509U 02040B   19259.55598082  .00000135  00000-0  00000+0 0  9995
2 27509   6.2432  55.2073 0000753  63.1951 118.3780  1.00273208 62520
ARIANE 5 R/B            
1 27510U 02040C   19258.82999269 -.00000131  00000-0 -43160-3 0  9994
2 27510   4.8999 257.1784 7167917 236.8058  98.4555  2.27208477141551
ARIANE 5 DEB [SYLDA]    
1 27511U 02040D   19258.82597984 -.00000179  00000-0 -15784-2 0  9995
2 27511   5.8557 304.5229 7161410 137.5115 220.6772  2.25317369140184
MSG 1 DEB [COOLER COVER]
1 39998U 02040E   19255.94397686 -.00000157  00000-0  00000+0 0  9991
2 39998  10.3162  30.6187 0022703 107.2655 253.0597  1.01188767 39662